Weather History for KUZA - October, 2011

Change the Weather History Date:

Friday, October 14, 2011

  Actual Average Record
Temperature  
Mean Temperature 64 °F -  
Max Temperature 73 °F 75 °F 90 °F (1954)
Min Temperature 54 °F 52 °F 32 °F (2006)
Degree Days  
Heating Degree Days 2    
Growing Degree Days 14 (Base 50)    
Moisture  
Dew Point 52 °F    
Average Humidity 76    
Maximum Humidity 100    
Minimum Humidity 27    
Precipitation  
Precipitation 0.02 in - - ()
Sea Level Pressure  
Sea Level Pressure 29.71 in    
Wind  
Wind Speed 7 mph (WSW)    
Max Wind Speed 15 mph    
Max Gust Speed 22 mph    
Visibility 10 miles    
Events      
Averages and records for this station are not official NWS values.
T = Trace of Precipitation, MM = Missing Value Source: NWS Daily Summary

Daily Weather History Graph

Daily Weather History Graph

Search for Another Location

Airport or City:

Trip Planner

Search our weather history database for the weather conditions in past years. The results will help you decide how hot, cold, wet, or windy it might be!

Date:

Astronomy

Oct. 14, 2011 Rise Set
Actual Time 7:29 AM EDT 6:50 PM EDT
Civil Twilight 7:03 AM EDT 7:16 PM EDT
Nautical Twilight 6:34 AM EDT 7:45 PM EDT
Astronomical Twilight 6:04 AM EDT 8:14 PM EDT
Moon 8:11 PM EDT (10/14) 9:48 AM EDT (10/14)
Length of Visible Light 12h 12m
Length of Day
11h 21m
Waning Gibbous, 94% of the Moon is Illuminated
Oct 14
Waning Gibbous
Oct 19
Last Quarter
Oct 26
New
Nov 2
First Quarter
Nov 10
Full

Hourly Weather History & Observations

Time (EDT) Temp. Dew Point Humidity Pressure Visibility Wind Dir Wind Speed Gust Speed Precip Events Conditions
12:54 AM 59.0 °F 57.9 °F 96% 29.61 in 10.0 mi SSW 6.9 mph - 0.01 in   Partly Cloudy
1:54 AM 57.9 °F 57.9 °F 100% 29.62 in 10.0 mi SSW 6.9 mph - N/A   Mostly Cloudy
2:10 AM 57.2 °F 57.2 °F 100% 29.64 in 9.0 mi SW 6.9 mph - N/A   Mostly Cloudy
2:54 AM 57.0 °F 57.0 °F 100% 29.61 in 9.0 mi SW 5.8 mph - N/A   Partly Cloudy
3:17 AM 57.2 °F 57.2 °F 100% 29.63 in 9.0 mi SW 8.1 mph - N/A   Scattered Clouds
3:42 AM 57.2 °F 57.2 °F 100% 29.64 in 10.0 mi WSW 5.8 mph - N/A   Mostly Cloudy
3:54 AM 57.0 °F 57.0 °F 100% 29.61 in 10.0 mi WSW 5.8 mph - N/A   Mostly Cloudy
4:54 AM 55.9 °F 55.9 °F 100% 29.62 in 10.0 mi SW 6.9 mph - N/A   Scattered Clouds
5:54 AM 55.9 °F 55.9 °F 100% 29.64 in 10.0 mi WSW 5.8 mph - N/A   Clear
6:33 AM 55.4 °F 55.4 °F 100% 29.67 in 10.0 mi WSW 8.1 mph - N/A   Mostly Cloudy
6:54 AM 55.9 °F 55.9 °F 100% 29.67 in 10.0 mi WSW 3.5 mph - N/A   Scattered Clouds
7:54 AM 55.9 °F 55.0 °F 97% 29.69 in 10.0 mi West 3.5 mph - 0.01 in   Mostly Cloudy
8:54 AM 57.9 °F 55.9 °F 93% 29.72 in 10.0 mi West 4.6 mph - N/A   Clear
9:54 AM 64.9 °F 54.0 °F 68% 29.73 in 10.0 mi WNW 9.2 mph - N/A   Clear
10:54 AM 68.0 °F 52.0 °F 56% 29.75 in 10.0 mi WNW 15.0 mph 20.7 mph N/A   Clear
11:54 AM 70.0 °F 46.9 °F 44% 29.76 in 10.0 mi NW 11.5 mph 20.7 mph N/A   Clear
12:54 PM 72.0 °F 46.0 °F 40% 29.76 in 10.0 mi WNW 13.8 mph 20.7 mph N/A   Partly Cloudy
1:54 PM 70.0 °F 46.9 °F 44% 29.76 in 10.0 mi NW 8.1 mph - N/A   Scattered Clouds
2:54 PM 73.9 °F 46.0 °F 37% 29.74 in 10.0 mi West 10.4 mph - N/A   Clear
3:54 PM 73.9 °F 37.9 °F 27% 29.73 in 10.0 mi West 12.7 mph 21.9 mph N/A   Clear
4:54 PM 73.9 °F 39.9 °F 29% 29.73 in 10.0 mi WNW 10.4 mph - N/A   Clear
5:54 PM 72.0 °F 44.1 °F 37% 29.75 in 10.0 mi WSW 3.5 mph - N/A   Clear
6:54 PM 61.0 °F 52.0 °F 72% 29.77 in 10.0 mi Calm Calm - N/A   Clear
7:54 PM 60.1 °F 48.9 °F 67% 29.79 in 10.0 mi WSW 6.9 mph - N/A   Clear
8:54 PM 55.0 °F 48.9 °F 80% 29.81 in 10.0 mi SW 6.9 mph - N/A   Clear
9:54 PM 54.0 °F 48.9 °F 83% 29.83 in 10.0 mi SW 6.9 mph - N/A   Clear
10:54 PM 54.0 °F 48.0 °F 80% 29.85 in 10.0 mi SW 5.8 mph - N/A   Clear
11:54 PM 55.0 °F 46.9 °F 74% 29.86 in 10.0 mi WSW 5.8 mph - N/A   Clear